Regional Weather Roundup
Issued by NWS State College, PA

Home | Current Version | Previous Version | Graphics & Text | Print | Product List | Glossary Off
Versions: 1 2 3 4 5 6 7 8 9 10 11 12 13 14 15 16 17 18 19 20 21 22 23 24 25 26 27 28 29 30 31 32 33 34 35 36 37 38 39 40 41 42 43 44 45 46 47 48 49 50

000
ASUS41 KCTP 261803
RWRCTP

REGIONAL WEATHER ROUNDUP
NATIONAL WEATHER SERVICE STATE COLLEGE PA
200 PM EDT THU MAR 26 2015

Note: "fair" indicates few or no clouds below 12,000 feet with no
significant weather and/or obstructions to visibility.

* = STATION THAT DOES NOT REPORT PRECIPITATION /E.G. RAIN...SNOW...ETC/
    THUNDER OR FOG.

PAZ002>004-007>009-013>016-020>023-029>032-261900-
WESTERN PENNSYLVANIA

CITY           SKY/WX    TMP DP  RH WIND       PRES   REMARKS
ERIE           SNOW      33  31  92 NW7       29.82R VSB 1/2
MEADVILLE      LGT RAIN  39  35  86 NW5       29.77S
FRANKLIN*      CLOUDY    39  36  87 NW6       29.78S
NEW CASTLE     CLOUDY    41  41 100 NW8       29.79F
BEAVER COUNTY  RAIN      41  39  93 N8        29.77S
BUTLER*        CLOUDY    43  39  87 N7        29.78F
PITTSBURGH INT LGT RAIN  44  41  89 N12G22    29.75F FOG
PITTSBURGH     LGT RAIN  43  38  82 NW16G25   29.74R
INDIANA*       CLOUDY    45  43  93 NW8       29.74S FOG
LATROBE        LGT RAIN  48  46  93 NW14      29.74R
WASHINGTON CO* CLOUDY    43  39  87 N12G17    29.77S
$$

PAZ004>006-010>012-017>019-024>028-033>037-041-042-045-046-049>053-261900-
CENTRAL PENNSYLVANIA

CITY           SKY/WX    TMP DP  RH WIND       PRES   REMARKS
BRADFORD       LGT RAIN  37  35  92 NW7       29.72R FOG
DUBOIS         CLOUDY    41  37  86 N8        29.70S FOG
CLEARFIELD     LGT RAIN  44  41  89 NW9       29.68F
JOHNSTOWN      CLOUDY    59  49  69 W14       29.65F
ALTOONA        CLOUDY    68  48  48 SW17      29.63F
STATE COLLEGE  PTSUNNY   52  41  66 CALM      29.65F
WILLIAMSPORT   PTSUNNY   49  39  68 CALM      29.68F
SELINSGROVE    MOSUNNY   61  48  62 S10G18    29.67F
FT INDIANTOWN  CLOUDY    51  44  75 NE5       29.72F
CAPITAL CITY   CLOUDY    57  46  66 E10       29.69F
HARRISBURG     CLOUDY    60  47  61 E7        29.69F HAZE
YORK           PTSUNNY   67  57  70 SW10G25   29.70F
$$

PAZ038>040-043-044-047-048-054-055-060>062-067>071-261900-
EASTERN PENNSYLVANIA

CITY           SKY/WX    TMP DP  RH WIND       PRES   REMARKS
SCRANTON       CLOUDY    56  47  71 VRB5      29.67F
MOUNT POCONO   CLOUDY    51  48  89 SW13G21   29.69F FOG
ALLENTOWN      CLOUDY    47  44  90 CALM      29.76F FOG
QUAKERTOWN*    CLOUDY    54  52  94 S6        29.76F
READING        CLOUDY    49  45  86 N7        29.73F FOG
LANCASTER      CLOUDY    60  56  86 SW12G21   29.72F
COATESVILLE    CLOUDY    55  55 100 S6        29.76F FOG
POTTSTOWN      CLOUDY    55  55 100 SE6       29.76F FOG
BLUE BELL      CLOUDY    57  55  94 SW5       29.76F VSB 1
DOYLESTOWN     LGT RAIN  50  50 100 CALM      29.75F FOG
WILLOW GROVE   NOT AVBL
NORTH PHILA    LGT RAIN  60  56  86 VRB6      29.77F FOG
PHILADELPHIA   LGT RAIN  61  58  90 S12       29.76F
$$


USA.gov is the U.S. government's official web portal to all federal, state and local government web resources and services.